2015,1,1,0,15,0,1.0104,-2.04,-9.48,NaN
2015,1,1,0,45,0,1.0312,-2.62,-9.01,NaN
2015,1,1,1,15,0,1.0521,-2.41,-9.01,NaN
2015,1,1,1,45,0,1.0729,-2.17,-9.17,NaN
2015,1,1,2,15,0,1.0937,-2.28,-9.68,NaN
2015,1,1,2,45,0,1.1146,-2.95,-9.21,NaN
2015,1,1,3,15,0,1.1354,-2.6,-9.06,NaN
2015,1,1,3,45,0,1.1562,-2.52,-9.41,NaN
2015,1,1,4,15,0,1.1771,-2.97,-8.96,NaN
2015,1,1,4,45,0,1.1979,-3.09,-9.19,NaN
2015,1,1,5,15,0,1.2187,-2.72,-9.03,NaN
2015,1,1,5,45,0,1.2396,-3.15,-9.24,NaN
2015,1,1,6,15,0,1.2604,-3.12,-9.41,NaN
2015,1,1,6,45,0,1.2812,-3.32,-9.73,NaN
2015,1,1,7,15,0,1.3021,0.35,-9.89,NaN
2015,1,1,7,45,0,1.3229,52.65,-9.6,NaN
2015,1,1,8,15,0,1.3437,136.11,-8.8,NaN
2015,1,1,8,45,0,1.3646,229.1,-8.37,NaN
2015,1,1,9,15,0,1.3854,297.51,-7.95,NaN
2015,1,1,9,45,0,1.4062,328.99,-7.98,NaN
2015,1,1,10,15,0,1.4271,363.15,-8.02,NaN
2015,1,1,10,45,0,1.4479,484.13,-7.67,NaN
2015,1,1,11,15,0,1.4687,510.51,-7.54,NaN
2015,1,1,11,45,0,1.4896,471.77,-7.7,NaN
2015,1,1,12,15,0,1.5104,470.89,-7.95,NaN
2015,1,1,12,45,0,1.5312,467.98,-8.18,NaN
2015,1,1,13,15,0,1.5521,462.87,-8.26,NaN
2015,1,1,13,45,0,1.5729,338.06,-8.32,NaN
2015,1,1,14,15,0,1.5937,318.7,-9.07,NaN
2015,1,1,14,45,0,1.6146,159.53,-10,NaN
2015,1,1,15,15,0,1.6354,162.18,-11.19,NaN
2015,1,1,15,45,0,1.6562,55.36,-11.58,NaN
2015,1,1,16,15,0,1.6771,13.22,-12.25,NaN
2015,1,1,16,45,0,1.6979,1.3,-13.1,NaN
2015,1,1,17,15,0,1.7187,-0.843,-12.82,NaN
2015,1,1,17,45,0,1.7396,-0.583,-10.85,NaN
2015,1,1,18,15,0,1.7604,-3.29,-11.89,NaN
2015,1,1,18,45,0,1.7812,-1.87,-12.96,NaN
2015,1,1,19,15,0,1.8021,-0.706,-13.01,NaN
2015,1,1,19,45,0,1.8229,-0.657,-12.57,NaN
2015,1,1,20,15,0,1.8437,-1.22,-12.26,NaN
2015,1,1,20,45,0,1.8646,-1.9,-11.58,NaN
2015,1,1,21,15,0,1.8854,-0.643,-11.21,NaN
2015,1,1,21,45,0,1.9062,-1.32,-11.24,NaN
2015,1,1,22,15,0,1.9271,-2.54,-11.21,NaN
2015,1,1,22,45,0,1.9479,-1.46,-11.06,NaN
2015,1,1,23,15,0,1.9687,-2.66,-11.23,NaN
2015,1,1,23,45,0,1.9896,-1.85,-11.27,NaN
2015,1,2,0,15,0,2.0104,-1.52,-11.56,NaN
2015,1,2,0,45,0,2.0312,-1.71,-11.51,NaN
2015,1,2,1,15,0,2.0521,-2.72,-11.87,NaN
2015,1,2,1,45,0,2.0729,-2.48,-11.92,NaN
2015,1,2,2,15,0,2.0937,-2.18,-11.54,NaN
2015,1,2,2,45,0,2.1146,-1.2,-11.29,NaN
2015,1,2,3,15,0,2.1354,-1.58,-11.07,NaN
2015,1,2,3,45,0,2.1562,-0.926,-10.77,NaN
2015,1,2,4,15,0,2.1771,-2.53,-11.17,NaN
2015,1,2,4,45,0,2.1979,-0.943,-11.08,NaN
2015,1,2,5,15,0,2.2187,-0.944,-9.69,NaN
2015,1,2,5,45,0,2.2396,-2.4,-9.82,NaN
2015,1,2,6,15,0,2.2604,-1.09,-9.54,NaN
2015,1,2,6,45,0,2.2812,-0.599,-9.42,NaN
2015,1,2,7,15,0,2.3021,3.91,-9.37,NaN
2015,1,2,7,45,0,2.3229,54.64,-9.49,NaN
2015,1,2,8,15,0,2.3437,66.95,-9.02,NaN
2015,1,2,8,45,0,2.3646,126.18,-8.27,NaN
2015,1,2,9,15,0,2.3854,188,-7.41,NaN
2015,1,2,9,45,0,2.4062,311.37,-6.64,NaN
2015,1,2,10,15,0,2.4271,307.72,-6.16,NaN
2015,1,2,10,45,0,2.4479,430.95,-5.71,NaN
2015,1,2,11,15,0,2.4687,545.07,-5.12,NaN
2015,1,2,11,45,0,2.4896,540.82,-5.6,NaN
2015,1,2,12,15,0,2.5104,547.27,-6.1,NaN
2015,1,2,12,45,0,2.5312,533.42,-5.6,NaN
2015,1,2,13,15,0,2.5521,501.41,-5.02,NaN
2015,1,2,13,45,0,2.5729,460.52,-4.44,NaN
2015,1,2,14,15,0,2.5937,396.11,-4.2,NaN
2015,1,2,14,45,0,2.6146,316.07,-3.94,NaN
2015,1,2,15,15,0,2.6354,235.33,-4.12,NaN
2015,1,2,15,45,0,2.6562,149.45,-4.82,NaN
2015,1,2,16,15,0,2.6771,40.89,-5.76,NaN
2015,1,2,16,45,0,2.6979,3.93,-6.23,NaN
2015,1,2,17,15,0,2.7187,-2.24,-6.27,NaN
2015,1,2,17,45,0,2.7396,-2.47,-6.28,NaN
2015,1,2,18,15,0,2.7604,-2.52,-5.99,NaN
2015,1,2,18,45,0,2.7812,-2.61,-6.05,NaN
2015,1,2,19,15,0,2.8021,-2.6,-5.97,NaN
2015,1,2,19,45,0,2.8229,-2.78,-5.77,NaN
2015,1,2,20,15,0,2.8437,-3.23,-6.17,NaN
2015,1,2,20,45,0,2.8646,-3.08,-6.28,NaN
2015,1,2,21,15,0,2.8854,-3.25,-6,NaN
2015,1,2,21,45,0,2.9062,-2.88,-5.9,NaN
2015,1,2,22,15,0,2.9271,-2.99,-6.18,NaN
2015,1,2,22,45,0,2.9479,-2.57,-6.66,NaN
2015,1,2,23,15,0,2.9687,-2.57,-6.68,NaN
2015,1,2,23,45,0,2.9896,-2.56,-7.39,NaN
2015,1,3,0,15,0,3.0104,-2.44,-7.72,NaN
2015,1,3,0,45,0,3.0312,-2.47,-7.78,NaN
2015,1,3,1,15,0,3.0521,-2.41,-8.15,NaN
2015,1,3,1,45,0,3.0729,-2.33,-8.27,NaN
2015,1,3,2,15,0,3.0937,-2.26,-8.66,NaN
2015,1,3,2,45,0,3.1146,-2.16,-8.48,NaN
2015,1,3,3,15,0,3.1354,-2.13,-8.23,NaN
2015,1,3,3,45,0,3.1562,-2.32,-8.01,NaN
2015,1,3,4,15,0,3.1771,-2.27,-7.11,NaN
2015,1,3,4,45,0,3.1979,-2.55,-7.28,NaN
2015,1,3,5,15,0,3.2187,-2.42,-7.28,NaN
2015,1,3,5,45,0,3.2396,-2.49,-7.42,NaN
2015,1,3,6,15,0,3.2604,-2.29,-7.42,NaN
2015,1,3,6,45,0,3.2812,-1.36,-6.78,NaN
2015,1,3,7,15,0,3.3021,3.22,-6.27,NaN
2015,1,3,7,45,0,3.3229,38.76,-5.59,NaN
2015,1,3,8,15,0,3.3437,53.47,-5.33,NaN
2015,1,3,8,45,0,3.3646,102.46,-5.05,NaN
2015,1,3,9,15,0,3.3854,239.94,-5.23,NaN
2015,1,3,9,45,0,3.4062,111.1,-5.21,NaN
2015,1,3,10,15,0,3.4271,250.81,-5.6,NaN
2015,1,3,10,45,0,3.4479,113.7,-6.6,NaN
2015,1,3,11,15,0,3.4687,69.61,-7.49,NaN
2015,1,3,11,45,0,3.4896,114.37,-8.06,NaN
2015,1,3,12,15,0,3.5104,243.19,-8.13,NaN
2015,1,3,12,45,0,3.5312,223.79,-8.8,NaN
2015,1,3,13,15,0,3.5521,165.38,-9.12,NaN
2015,1,3,13,45,0,3.5729,168.31,-9.27,NaN
2015,1,3,14,15,0,3.5937,105.67,-9.43,NaN
2015,1,3,14,45,0,3.6146,104.64,-9.54,NaN
2015,1,3,15,15,0,3.6354,93.28,-9.71,NaN
2015,1,3,15,45,0,3.6562,47.53,-9.82,NaN
2015,1,3,16,15,0,3.6771,14.96,-10.24,NaN
2015,1,3,16,45,0,3.6979,2.9,-10.6,NaN
2015,1,3,17,15,0,3.7187,-0.74,-10.98,NaN
2015,1,3,17,45,0,3.7396,-0.929,-11.54,NaN
2015,1,3,18,15,0,3.7604,-0.985,-12,NaN
2015,1,3,18,45,0,3.7812,-1.63,-12.35,NaN
2015,1,3,19,15,0,3.8021,-2.44,-12.7,NaN
2015,1,3,19,45,0,3.8229,-1.89,-12.84,NaN
2015,1,3,20,15,0,3.8437,-1.57,-13.07,NaN
2015,1,3,20,45,0,3.8646,-1.57,-13.12,NaN
2015,1,3,21,15,0,3.8854,-1.25,-13.19,NaN
2015,1,3,21,45,0,3.9062,-1.14,-13.11,NaN
2015,1,3,22,15,0,3.9271,-1.12,-13.15,NaN
2015,1,3,22,45,0,3.9479,-0.904,-13.31,NaN
2015,1,3,23,15,0,3.9687,-0.87,-13.55,NaN
2015,1,3,23,45,0,3.9896,-0.98,-13.7,NaN
2015,1,4,0,15,0,4.0104,-0.911,-13.5,NaN
2015,1,4,0,45,0,4.0312,-0.896,-13.3,NaN
2015,1,4,1,15,0,4.0521,-0.816,-13.25,NaN
2015,1,4,1,45,0,4.0729,-0.91,-13.19,NaN
2015,1,4,2,15,0,4.0937,-1.13,-12.88,NaN
2015,1,4,2,45,0,4.1146,-1.68,-12.68,NaN
2015,1,4,3,15,0,4.1354,-1.44,-12.58,NaN
2015,1,4,3,45,0,4.1562,-1.12,-12.36,NaN
2015,1,4,4,15,0,4.1771,-0.965,-12.07,NaN
2015,1,4,4,45,0,4.1979,-1.04,-11.98,NaN
2015,1,4,5,15,0,4.2187,-1.1,-11.7,NaN
2015,1,4,5,45,0,4.2396,-1.26,-11.54,NaN
2015,1,4,6,15,0,4.2604,-1.39,-11.38,NaN
2015,1,4,6,45,0,4.2812,-1.24,-11,NaN
2015,1,4,7,15,0,4.3021,10.7,-10.52,NaN
2015,1,4,7,45,0,4.3229,16.54,-10.19,NaN
2015,1,4,8,15,0,4.3437,48.32,-10.06,NaN
2015,1,4,8,45,0,4.3646,112.59,-9.9,NaN
2015,1,4,9,15,0,4.3854,127.32,-9.93,NaN
2015,1,4,9,45,0,4.4062,251.02,-9.61,NaN
2015,1,4,10,15,0,4.4271,209.79,-9.66,NaN
2015,1,4,10,45,0,4.4479,403.47,-9.3,NaN
2015,1,4,11,15,0,4.4687,477.86,-8.8,NaN
2015,1,4,11,45,0,4.4896,419.87,-8.54,NaN
2015,1,4,12,15,0,4.5104,376.62,-8.54,NaN
2015,1,4,12,45,0,4.5312,470.56,-7.85,NaN
2015,1,4,13,15,0,4.5521,360.39,-7.46,NaN
2015,1,4,13,45,0,4.5729,332.15,-7.67,NaN
2015,1,4,14,15,0,4.5937,320.21,-7.38,NaN
2015,1,4,14,45,0,4.6146,118.63,-7.27,NaN
2015,1,4,15,15,0,4.6354,47.24,-7.87,NaN
2015,1,4,15,45,0,4.6562,30.58,-8.24,NaN
2015,1,4,16,15,0,4.6771,16.53,-8.18,NaN
2015,1,4,16,45,0,4.6979,4.25,-8.42,NaN
2015,1,4,17,15,0,4.7187,-0.322,-8.61,NaN
2015,1,4,17,45,0,4.7396,-0.741,-8.2,NaN
2015,1,4,18,15,0,4.7604,-1.22,-7.54,NaN
2015,1,4,18,45,0,4.7812,-1.36,-7.25,NaN
2015,1,4,19,15,0,4.8021,-1.54,-6.65,NaN
2015,1,4,19,45,0,4.8229,-1.59,-6.34,NaN
2015,1,4,20,15,0,4.8437,-1.6,-6.36,NaN
2015,1,4,20,45,0,4.8646,-1.69,-5.95,NaN
2015,1,4,21,15,0,4.8854,-1.8,-5.57,NaN
2015,1,4,21,45,0,4.9062,-1.79,-5.54,NaN
2015,1,4,22,15,0,4.9271,-1.88,-5.59,NaN
2015,1,4,22,45,0,4.9479,-1.73,-5.7,NaN
2015,1,4,23,15,0,4.9687,-1.56,-5.48,NaN
2015,1,4,23,45,0,4.9896,-1.7,-5.58,NaN
2015,1,5,0,15,0,5.0104,-1.73,-5.43,NaN
2015,1,5,0,45,0,5.0312,-1.74,-5.08,NaN
2015,1,5,1,15,0,5.0521,-1.7,-4.95,NaN
2015,1,5,1,45,0,5.0729,-1.68,-4.74,NaN
2015,1,5,2,15,0,5.0937,-1.55,-4.86,NaN
2015,1,5,2,45,0,5.1146,-1.53,-4.88,NaN
2015,1,5,3,15,0,5.1354,-1.43,-5.1,NaN
2015,1,5,3,45,0,5.1562,-1.34,-5.05,NaN
2015,1,5,4,15,0,5.1771,-1.3,-4.73,NaN
2015,1,5,4,45,0,5.1979,-1.37,-4.46,NaN
2015,1,5,5,15,0,5.2187,-1.39,-4.2,NaN
2015,1,5,5,45,0,5.2396,-1.42,-4.28,NaN
2015,1,5,6,15,0,5.2604,-1.46,-4.27,NaN
2015,1,5,6,45,0,5.2812,-1.32,-4.41,NaN
2015,1,5,7,15,0,5.3021,0.009,-4.24,NaN
2015,1,5,7,45,0,5.3229,10.35,-3.88,NaN
2015,1,5,8,15,0,5.3437,36.2,-3.32,NaN
2015,1,5,8,45,0,5.3646,67.32,-3.03,NaN
2015,1,5,9,15,0,5.3854,76.49,-2.7,NaN
2015,1,5,9,45,0,5.4062,212.07,-2.08,NaN
2015,1,5,10,15,0,5.4271,256.9,-1.65,NaN
2015,1,5,10,45,0,5.4479,308.68,-1.3,NaN
2015,1,5,11,15,0,5.4687,451.68,-0.831,NaN
2015,1,5,11,45,0,5.4896,532.42,-0.454,NaN
2015,1,5,12,15,0,5.5104,562.78,-0.308,NaN
2015,1,5,12,45,0,5.5312,529.77,-0.436,NaN
2015,1,5,13,15,0,5.5521,516.1,-0.205,NaN
2015,1,5,13,45,0,5.5729,425.08,-0.31,NaN
2015,1,5,14,15,0,5.5937,365.18,-0.24,NaN
2015,1,5,14,45,0,5.6146,299.28,-0.025,NaN
2015,1,5,15,15,0,5.6354,153.73,-0.159,NaN
2015,1,5,15,45,0,5.6562,54.79,-0.37,NaN
2015,1,5,16,15,0,5.6771,25.33,-0.491,NaN
2015,1,5,16,45,0,5.6979,8.26,-0.184,NaN
2015,1,5,17,15,0,5.7187,-0.745,-0.344,NaN
2015,1,5,17,45,0,5.7396,-0.73,-0.595,NaN
2015,1,5,18,15,0,5.7604,-0.706,-0.514,NaN
2015,1,5,18,45,0,5.7812,-0.743,-0.459,NaN
2015,1,5,19,15,0,5.8021,-0.709,-0.31,NaN
2015,1,5,19,45,0,5.8229,-0.693,-0.61,NaN
2015,1,5,20,15,0,5.8437,-0.545,-0.405,NaN
2015,1,5,20,45,0,5.8646,-0.59,-0.577,NaN
2015,1,5,21,15,0,5.8854,-0.397,-0.465,NaN
2015,1,5,21,45,0,5.9062,-1.11,-0.561,NaN
2015,1,5,22,15,0,5.9271,-0.668,-0.425,NaN
2015,1,5,22,45,0,5.9479,-0.29,-0.29,NaN
2015,1,5,23,15,0,5.9687,-0.539,-0.373,NaN
2015,1,5,23,45,0,5.9896,-0.462,-0.838,NaN
2015,1,6,0,15,0,6.0104,-0.189,-0.821,NaN
2015,1,6,0,45,0,6.0312,-1.52,-0.343,NaN
2015,1,6,1,15,0,6.0521,-2.29,-0.123,NaN
2015,1,6,1,45,0,6.0729,-2.13,-0.06,NaN
2015,1,6,2,15,0,6.0937,-2,-0.135,NaN
2015,1,6,2,45,0,6.1146,-2.43,-0.171,NaN
2015,1,6,3,15,0,6.1354,-1.79,-0.411,NaN
2015,1,6,3,45,0,6.1562,-1.44,-0.406,NaN
2015,1,6,4,15,0,6.1771,-1.46,-0.426,NaN
2015,1,6,4,45,0,6.1979,-1.39,-0.824,NaN
2015,1,6,5,15,0,6.2187,-1.44,-0.689,NaN
2015,1,6,5,45,0,6.2396,-1.8,-0.587,NaN
2015,1,6,6,15,0,6.2604,-1.83,-0.578,NaN
2015,1,6,6,45,0,6.2812,-1.56,-0.444,NaN
2015,1,6,7,15,0,6.3021,7.78,-0.325,NaN
2015,1,6,7,45,0,6.3229,39.37,-0.061,NaN
2015,1,6,8,15,0,6.3437,75.88,0.129,NaN
2015,1,6,8,45,0,6.3646,145.76,1.09,NaN
2015,1,6,9,15,0,6.3854,239.77,1.09,NaN
2015,1,6,9,45,0,6.4062,147.71,0.607,NaN
2015,1,6,10,15,0,6.4271,99.81,0.744,NaN
2015,1,6,10,45,0,6.4479,129.81,1.26,NaN
2015,1,6,11,15,0,6.4687,129.11,1.14,NaN
2015,1,6,11,45,0,6.4896,155.99,1.74,NaN
2015,1,6,12,15,0,6.5104,192.64,1.96,NaN
2015,1,6,12,45,0,6.5312,235.53,1.6,NaN
2015,1,6,13,15,0,6.5521,242.83,0.995,NaN
2015,1,6,13,45,0,6.5729,280.59,1.2,NaN
2015,1,6,14,15,0,6.5937,246.68,1.25,NaN
2015,1,6,14,45,0,6.6146,144.3,0.883,NaN
2015,1,6,15,15,0,6.6354,195.93,0.773,NaN
2015,1,6,15,45,0,6.6562,131.99,0.382,NaN
2015,1,6,16,15,0,6.6771,70.53,0.15,NaN
2015,1,6,16,45,0,6.6979,22.77,-0.012,NaN
2015,1,6,17,15,0,6.7187,0.485,-0.197,NaN
2015,1,6,17,45,0,6.7396,-1.85,-0.401,NaN
2015,1,6,18,15,0,6.7604,-1.7,-0.342,NaN
2015,1,6,18,45,0,6.7812,-1.69,-0.33,NaN
2015,1,6,19,15,0,6.8021,-1.78,-0.452,NaN
2015,1,6,19,45,0,6.8229,-1.71,-0.474,NaN
2015,1,6,20,15,0,6.8437,-1.79,-0.535,NaN
2015,1,6,20,45,0,6.8646,-1.95,-0.701,NaN
2015,1,6,21,15,0,6.8854,-2.08,-0.822,NaN
2015,1,6,21,45,0,6.9062,-2.27,-0.895,NaN
2015,1,6,22,15,0,6.9271,-2.13,-0.95,NaN
2015,1,6,22,45,0,6.9479,-2.17,-0.889,NaN
2015,1,6,23,15,0,6.9687,-2.32,-0.919,NaN
2015,1,6,23,45,0,6.9896,-2.37,-0.949,NaN
2015,1,7,0,15,0,7.0104,-2.31,-1.04,NaN
2015,1,7,0,45,0,7.0312,-2.29,-1.1,NaN
2015,1,7,1,15,0,7.0521,-2.25,-0.896,NaN
2015,1,7,1,45,0,7.0729,-2.2,-0.798,NaN
2015,1,7,2,15,0,7.0937,-2.18,-0.777,NaN
2015,1,7,2,45,0,7.1146,-2.14,-0.741,NaN
2015,1,7,3,15,0,7.1354,-2.23,-1.02,NaN
2015,1,7,3,45,0,7.1562,-2.13,-1.12,NaN
2015,1,7,4,15,0,7.1771,-2.1,-0.918,NaN
2015,1,7,4,45,0,7.1979,-2.11,-0.878,NaN
2015,1,7,5,15,0,7.2187,-2.43,-0.943,NaN
2015,1,7,5,45,0,7.2396,-2.96,-0.791,NaN
2015,1,7,6,15,0,7.2604,-2.6,-1.06,NaN
2015,1,7,6,45,0,7.2812,-2.3,0.211,NaN
2015,1,7,7,15,0,7.3021,-1.64,0.433,NaN
2015,1,7,7,45,0,7.3229,20.3,-0.755,NaN
2015,1,7,8,15,0,7.3437,119.27,-0.6,NaN
2015,1,7,8,45,0,7.3646,213.56,0.574,NaN
2015,1,7,9,15,0,7.3854,284.37,1.25,NaN
2015,1,7,9,45,0,7.4062,347.24,1.7,NaN
2015,1,7,10,15,0,7.4271,434.61,2.35,NaN
2015,1,7,10,45,0,7.4479,479.53,2.67,NaN
2015,1,7,11,15,0,7.4687,512.61,2.94,NaN
2015,1,7,11,45,0,7.4896,530.66,1.9,NaN
2015,1,7,12,15,0,7.5104,540.96,2.48,NaN
2015,1,7,12,45,0,7.5312,524.53,2.59,NaN
2015,1,7,13,15,0,7.5521,485.23,3.24,NaN
2015,1,7,13,45,0,7.5729,433.39,3.07,NaN
2015,1,7,14,15,0,7.5937,389.35,2.83,NaN
2015,1,7,14,45,0,7.6146,327.53,2.63,NaN
2015,1,7,15,15,0,7.6354,237.35,2.08,NaN
2015,1,7,15,45,0,7.6562,160.2,1.93,NaN
2015,1,7,16,15,0,7.6771,59.89,1.21,NaN
2015,1,7,16,45,0,7.6979,8.26,0.492,NaN
2015,1,7,17,15,0,7.7187,-2.63,0.303,NaN
2015,1,7,17,45,0,7.7396,-2.58,0.584,NaN
2015,1,7,18,15,0,7.7604,-2.28,0.938,NaN
2015,1,7,18,45,0,7.7812,-2.59,0.986,NaN
2015,1,7,19,15,0,7.8021,-2.84,0.89,NaN
2015,1,7,19,45,0,7.8229,-2.78,0.59,NaN
2015,1,7,20,15,0,7.8437,-2.44,0.536,NaN
2015,1,7,20,45,0,7.8646,-2.27,0.498,NaN
2015,1,7,21,15,0,7.8854,-2.34,0.496,NaN
2015,1,7,21,45,0,7.9062,-2.92,0.5,NaN
2015,1,7,22,15,0,7.9271,-3.12,0.083,NaN
2015,1,7,22,45,0,7.9479,-2.99,0.12,NaN
2015,1,7,23,15,0,7.9687,-2.65,0.508,NaN
2015,1,7,23,45,0,7.9896,-2.92,0.595,NaN
2015,1,8,0,15,0,8.0104,-2.8,1.24,NaN
2015,1,8,0,45,0,8.0312,-2.65,1.26,NaN
2015,1,8,1,15,0,8.0521,-2.74,0.758,NaN
2015,1,8,1,45,0,8.0729,-2.26,0.633,NaN
2015,1,8,2,15,0,8.0937,-2.11,0.897,NaN
2015,1,8,2,45,0,8.1146,-1.99,1.68,NaN
2015,1,8,3,15,0,8.1354,-2.13,1.85,NaN
2015,1,8,3,45,0,8.1562,-2.13,2.31,NaN
2015,1,8,4,15,0,8.1771,-2.34,1.97,NaN
2015,1,8,4,45,0,8.1979,-2.43,1.29,NaN
2015,1,8,5,15,0,8.2187,-2.25,0.581,NaN
2015,1,8,5,45,0,8.2396,-2.39,0.107,NaN
2015,1,8,6,15,0,8.2604,-2.35,0.423,NaN
2015,1,8,6,45,0,8.2812,-2.21,0.866,NaN
2015,1,8,7,15,0,8.3021,0.842,0.542,NaN
2015,1,8,7,45,0,8.3229,54.54,-0.049,NaN
2015,1,8,8,15,0,8.3437,144.71,0.395,NaN
2015,1,8,8,45,0,8.3646,236.52,0.832,NaN
2015,1,8,9,15,0,8.3854,321.05,1.23,NaN
2015,1,8,9,45,0,8.4062,396.86,1.89,NaN
2015,1,8,10,15,0,8.4271,461.26,1.67,NaN
2015,1,8,10,45,0,8.4479,507.77,1.82,NaN
2015,1,8,11,15,0,8.4687,538.78,2.16,NaN
2015,1,8,11,45,0,8.4896,557.5,2.21,NaN
2015,1,8,12,15,0,8.5104,564.32,1.92,NaN
2015,1,8,12,45,0,8.5312,551.3,2.13,NaN
2015,1,8,13,15,0,8.5521,516.96,2.46,NaN
2015,1,8,13,45,0,8.5729,469.93,2.37,NaN
2015,1,8,14,15,0,8.5937,410.08,2.13,NaN
2015,1,8,14,45,0,8.6146,337.19,2.01,NaN
2015,1,8,15,15,0,8.6354,255.45,1.8,NaN
2015,1,8,15,45,0,8.6562,168.12,1.39,NaN
2015,1,8,16,15,0,8.6771,58.66,0.912,NaN
2015,1,8,16,45,0,8.6979,4.71,0.318,NaN
2015,1,8,17,15,0,8.7187,-5.69,-3.73,NaN
2015,1,8,17,45,0,8.7396,-0.749,-5.45,NaN
2015,1,8,18,15,0,8.7604,-0.056,-5.84,NaN
2015,1,8,18,45,0,8.7812,-0.05,-5.97,NaN
2015,1,8,19,15,0,8.8021,0.068,-6.19,NaN
2015,1,8,19,45,0,8.8229,-0.043,-6.57,NaN
2015,1,8,20,15,0,8.8437,-0.237,-7.03,NaN
2015,1,8,20,45,0,8.8646,-0.17,-7.58,NaN
2015,1,8,21,15,0,8.8854,-0.361,-7.96,NaN
2015,1,8,21,45,0,8.9062,-0.576,-8.75,NaN
2015,1,8,22,15,0,8.9271,-0.878,-10.1,NaN
2015,1,8,22,45,0,8.9479,-0.725,-11.41,NaN
2015,1,8,23,15,0,8.9687,-0.691,-12.04,NaN
2015,1,8,23,45,0,8.9896,-0.843,-12.81,NaN
2015,1,9,0,15,0,9.0104,-0.806,-13.22,NaN
2015,1,9,0,45,0,9.0312,-1.01,-13.52,NaN
2015,1,9,1,15,0,9.0521,-1.04,-14.06,NaN
2015,1,9,1,45,0,9.0729,-0.241,-14.09,NaN
2015,1,9,2,15,0,9.0937,1.23,-11.94,NaN
2015,1,9,2,45,0,9.1146,-0.099,-10.94,NaN
2015,1,9,3,15,0,9.1354,-0.452,-9.3,NaN
2015,1,9,3,45,0,9.1562,-2.21,-8.59,NaN
2015,1,9,4,15,0,9.1771,-1.6,-6.95,NaN
2015,1,9,4,45,0,9.1979,-3.26,-7.15,NaN
2015,1,9,5,15,0,9.2187,-3.18,-7.45,NaN
2015,1,9,5,45,0,9.2396,-4.43,-7.55,NaN
2015,1,9,6,15,0,9.2604,-4.82,-8.65,NaN
2015,1,9,6,45,0,9.2812,-4.97,-9.32,NaN
2015,1,9,7,15,0,9.3021,0.55,-9.78,NaN
2015,1,9,7,45,0,9.3229,11.56,-9.88,NaN
2015,1,9,8,15,0,9.3437,37.03,-9.74,NaN
2015,1,9,8,45,0,9.3646,88.25,-9.18,NaN
2015,1,9,9,15,0,9.3854,165.83,-7.33,NaN
2015,1,9,9,45,0,9.4062,196.03,-7.18,NaN
2015,1,9,10,15,0,9.4271,235.75,-6.91,NaN
2015,1,9,10,45,0,9.4479,213.49,-6.7,NaN
2015,1,9,11,15,0,9.4687,163.71,-6.64,NaN
2015,1,9,11,45,0,9.4896,278.37,-5.85,NaN
2015,1,9,12,15,0,9.5104,369.83,-4.58,NaN
2015,1,9,12,45,0,9.5312,482.45,-4.27,NaN
2015,1,9,13,15,0,9.5521,590.56,-3.52,NaN
2015,1,9,13,45,0,9.5729,489.92,-1.41,NaN
2015,1,9,14,15,0,9.5937,425.39,0.014,NaN
2015,1,9,14,45,0,9.6146,350.94,0.381,NaN
2015,1,9,15,15,0,9.6354,255.74,0.166,NaN
2015,1,9,15,45,0,9.6562,165.28,-0.273,NaN
2015,1,9,16,15,0,9.6771,60.06,-0.822,NaN
2015,1,9,16,45,0,9.6979,6.21,-1.06,NaN
2015,1,9,17,15,0,9.7187,-2.39,-1.1,NaN
2015,1,9,17,45,0,9.7396,-3.34,-1.07,NaN
2015,1,9,18,15,0,9.7604,-3.24,-1.23,NaN
2015,1,9,18,45,0,9.7812,-2.98,-1.17,NaN
2015,1,9,19,15,0,9.8021,-2.8,-0.946,NaN
2015,1,9,19,45,0,9.8229,-2.53,-0.455,NaN
2015,1,9,20,15,0,9.8437,-2.59,-0.471,NaN
2015,1,9,20,45,0,9.8646,-2.94,-0.757,NaN
2015,1,9,21,15,0,9.8854,-2.71,-0.951,NaN
2015,1,9,21,45,0,9.9062,-2.26,-1.09,NaN
2015,1,9,22,15,0,9.9271,-1.97,-1.24,NaN
2015,1,9,22,45,0,9.9479,-1.56,-1.21,NaN
2015,1,9,23,15,0,9.9687,-1.36,-1.08,NaN
2015,1,9,23,45,0,9.9896,-1.3,-1.11,NaN
2015,1,10,0,15,0,10.01,-1.5,-1.3,NaN
2015,1,10,0,45,0,10.031,-1.52,-1.38,NaN
2015,1,10,1,15,0,10.052,-1.37,-1.82,NaN
2015,1,10,1,45,0,10.073,-1.28,-2.03,NaN
2015,1,10,2,15,0,10.094,-1.38,-1.74,NaN
2015,1,10,2,45,0,10.115,-1.38,-1.83,NaN
2015,1,10,3,15,0,10.135,-1.28,-1.86,NaN
2015,1,10,3,45,0,10.156,-1.5,-1.94,NaN
2015,1,10,4,15,0,10.177,-1.37,-2.08,NaN
2015,1,10,4,45,0,10.198,-1.54,-2.02,NaN
2015,1,10,5,15,0,10.219,-1.55,-1.92,NaN
2015,1,10,5,45,0,10.24,-1.51,-1.68,NaN
2015,1,10,6,15,0,10.26,-1.61,-1.68,NaN
2015,1,10,6,45,0,10.281,-1.59,-1.62,NaN
2015,1,10,7,15,0,10.302,1.39,-1.28,NaN
2015,1,10,7,45,0,10.323,9.13,-1.3,NaN
2015,1,10,8,15,0,10.344,17.17,-1.37,NaN
2015,1,10,8,45,0,10.365,31.39,-1.13,NaN
2015,1,10,9,15,0,10.385,46.94,-0.996,NaN
2015,1,10,9,45,0,10.406,64.26,-1.04,NaN
2015,1,10,10,15,0,10.427,91.26,-1.11,NaN
2015,1,10,10,45,0,10.448,120.95,-0.901,NaN
2015,1,10,11,15,0,10.469,186.23,-0.601,NaN
2015,1,10,11,45,0,10.49,260.56,-0.471,NaN
2015,1,10,12,15,0,10.51,380.62,-0.23,NaN
2015,1,10,12,45,0,10.531,403.02,-0.097,NaN
2015,1,10,13,15,0,10.552,485.03,0.276,NaN
2015,1,10,13,45,0,10.573,411.76,0.511,NaN
2015,1,10,14,15,0,10.594,356.47,0.373,NaN
2015,1,10,14,45,0,10.615,303.29,0.338,NaN
2015,1,10,15,15,0,10.635,260.26,0.077,NaN
2015,1,10,15,45,0,10.656,171.68,-0.312,NaN
2015,1,10,16,15,0,10.677,42.02,-0.72,NaN
2015,1,10,16,45,0,10.698,7.23,-1.13,NaN
2015,1,10,17,15,0,10.719,-2.53,-1.15,NaN
2015,1,10,17,45,0,10.74,-2.94,-1.33,NaN
2015,1,10,18,15,0,10.76,-3.16,-1.38,NaN
2015,1,10,18,45,0,10.781,-3.03,-1.54,NaN
2015,1,10,19,15,0,10.802,-3.13,-1.66,NaN
2015,1,10,19,45,0,10.823,-3.14,-1.73,NaN
2015,1,10,20,15,0,10.844,-3.28,-1.93,NaN
2015,1,10,20,45,0,10.865,-3.46,-1.99,NaN
2015,1,10,21,15,0,10.885,-3.33,-2.06,NaN
2015,1,10,21,45,0,10.906,-2.96,-2.1,NaN
2015,1,10,22,15,0,10.927,-2.96,-2.06,NaN
2015,1,10,22,45,0,10.948,-2.74,-2.13,NaN
2015,1,10,23,15,0,10.969,-2.84,-2.22,NaN
2015,1,10,23,45,0,10.99,-2.64,-2.57,NaN
2015,1,11,0,15,0,11.01,-2.65,-2.69,NaN
2015,1,11,0,45,0,11.031,-2.95,-2.85,NaN
2015,1,11,1,15,0,11.052,-2.43,-2.78,NaN
2015,1,11,1,45,0,11.073,-2.5,-2.34,NaN
2015,1,11,2,15,0,11.094,-3.02,-2.65,NaN
2015,1,11,2,45,0,11.115,-2.5,-2.7,NaN
2015,1,11,3,15,0,11.135,-3.09,-2.4,NaN
2015,1,11,3,45,0,11.156,-2.67,-2.64,NaN
2015,1,11,4,15,0,11.177,-2.34,-2.5,NaN
2015,1,11,4,45,0,11.198,-2.54,-2.65,NaN
2015,1,11,5,15,0,11.219,-1.16,-2.83,NaN
2015,1,11,5,45,0,11.24,-1,-2.47,NaN
2015,1,11,6,15,0,11.26,-1.15,-2.56,NaN
2015,1,11,6,45,0,11.281,-0.345,-2.61,NaN
2015,1,11,7,15,0,11.302,3.31,-2.75,NaN
2015,1,11,7,45,0,11.323,3.65,-2.85,NaN
2015,1,11,8,15,0,11.344,13.11,-3.11,NaN
2015,1,11,8,45,0,11.365,25.2,-3.14,NaN
2015,1,11,9,15,0,11.385,21.37,-3.34,NaN
2015,1,11,9,45,0,11.406,25.12,-3.69,NaN
2015,1,11,10,15,0,11.427,46.68,-3.57,NaN
2015,1,11,10,45,0,11.448,70.39,-3.77,NaN
2015,1,11,11,15,0,11.469,92.53,-3.59,NaN
2015,1,11,11,45,0,11.49,143.37,-3.23,NaN
2015,1,11,12,15,0,11.51,114.08,-2.94,NaN
2015,1,11,12,45,0,11.531,135.34,-3.53,NaN
2015,1,11,13,15,0,11.552,222.45,-2.62,NaN
2015,1,11,13,45,0,11.573,179.2,-2.51,NaN
2015,1,11,14,15,0,11.594,248.59,-2.33,NaN
2015,1,11,14,45,0,11.615,75.7,-2.89,NaN
2015,1,11,15,15,0,11.635,31.94,-4.22,NaN
2015,1,11,15,45,0,11.656,28.91,-4.66,NaN
2015,1,11,16,15,0,11.677,21.41,-4.78,NaN
2015,1,11,16,45,0,11.698,6.55,-5.07,NaN
2015,1,11,17,15,0,11.719,-0.07,-5.22,NaN
2015,1,11,17,45,0,11.74,-0.594,-5.33,NaN
2015,1,11,18,15,0,11.76,-0.88,-5.39,NaN
2015,1,11,18,45,0,11.781,-0.28,-5.48,NaN
2015,1,11,19,15,0,11.802,-0.612,-5.54,NaN
2015,1,11,19,45,0,11.823,-1.57,-5.65,NaN
2015,1,11,20,15,0,11.844,-0.211,-5.71,NaN
2015,1,11,20,45,0,11.865,-0.437,-5.85,NaN
2015,1,11,21,15,0,11.885,-0.303,-5.99,NaN
2015,1,11,21,45,0,11.906,-0.772,-6.11,NaN
2015,1,11,22,15,0,11.927,-1.17,-6.25,NaN
2015,1,11,22,45,0,11.948,-0.629,-6.38,NaN
2015,1,11,23,15,0,11.969,-1.38,-6.56,NaN
2015,1,11,23,45,0,11.99,-1.03,-6.74,NaN
2015,1,12,0,15,0,12.01,-0.737,-7.03,NaN
2015,1,12,0,45,0,12.031,-0.859,-7.16,NaN
2015,1,12,1,15,0,12.052,-1.32,-7.46,NaN
2015,1,12,1,45,0,12.073,-1.56,-7.63,NaN
2015,1,12,2,15,0,12.094,-2.69,-7.93,NaN
2015,1,12,2,45,0,12.115,-3.58,-8,NaN
2015,1,12,3,15,0,12.135,-3.44,-7.57,NaN
2015,1,12,3,45,0,12.156,-3.85,-7.25,NaN
2015,1,12,4,15,0,12.177,-4.47,-7.28,NaN
2015,1,12,4,45,0,12.198,-5.53,-7.38,NaN
2015,1,12,5,15,0,12.219,-5.69,-7.55,NaN
2015,1,12,5,45,0,12.24,-5.23,-7.57,NaN
2015,1,12,6,15,0,12.26,-4.61,-7.6,NaN
2015,1,12,6,45,0,12.281,-4.63,-7.64,NaN
2015,1,12,7,15,0,12.302,-2.26,-7.4,NaN
2015,1,12,7,45,0,12.323,27.46,-7.31,NaN
2015,1,12,8,15,0,12.344,61.13,-6.08,NaN
2015,1,12,8,45,0,12.365,126.55,-5.84,NaN
2015,1,12,9,15,0,12.385,269.77,-4.86,NaN
2015,1,12,9,45,0,12.406,259.05,-4.58,NaN
2015,1,12,10,15,0,12.427,365.53,-4.33,NaN
2015,1,12,10,45,0,12.448,375.13,-4.16,NaN
2015,1,12,11,15,0,12.469,378.03,-4.04,NaN
2015,1,12,11,45,0,12.49,515.14,-3.7,NaN
2015,1,12,12,15,0,12.51,362.74,-3.16,NaN
2015,1,12,12,45,0,12.531,566.91,-2.77,NaN
2015,1,12,13,15,0,12.552,353.86,-3,NaN
2015,1,12,13,45,0,12.573,392.64,-3.12,NaN
2015,1,12,14,15,0,12.594,183.26,-3.47,NaN
2015,1,12,14,45,0,12.615,190.72,-3.46,NaN
2015,1,12,15,15,0,12.635,162.06,-3.25,NaN
2015,1,12,15,45,0,12.656,165.31,-3.23,NaN
2015,1,12,16,15,0,12.677,74,-3.71,NaN
2015,1,12,16,45,0,12.698,15.42,-4.24,NaN
2015,1,12,17,15,0,12.719,-2.34,-4.33,NaN
2015,1,12,17,45,0,12.74,-1.98,-4.34,NaN
2015,1,12,18,15,0,12.76,-1.72,-4.55,NaN
2015,1,12,18,45,0,12.781,-1.72,-4.66,NaN
2015,1,12,19,15,0,12.802,-2.66,-4.88,NaN
2015,1,12,19,45,0,12.823,-2.84,-5.21,NaN
2015,1,12,20,15,0,12.844,-2.44,-4.99,NaN
2015,1,12,20,45,0,12.865,-2.36,-5.06,NaN
2015,1,12,21,15,0,12.885,-2.88,-5.95,NaN
2015,1,12,21,45,0,12.906,-1.9,-5,NaN
2015,1,12,22,15,0,12.927,-2.08,-5.4,NaN
2015,1,12,22,45,0,12.948,-1.96,-6.06,NaN
2015,1,12,23,15,0,12.969,-1.66,-5.87,NaN
2015,1,12,23,45,0,12.99,-1.48,-6.26,NaN
2015,1,13,0,15,0,13.01,-1.42,-5.58,NaN
2015,1,13,0,45,0,13.031,-1.94,-5.73,NaN
2015,1,13,1,15,0,13.052,-1.85,-6.31,NaN
2015,1,13,1,45,0,13.073,-0.707,-6.64,NaN
2015,1,13,2,15,0,13.094,0.456,-4.98,NaN
2015,1,13,2,45,0,13.115,-0.312,-5.4,NaN
2015,1,13,3,15,0,13.135,-0.767,-5.86,NaN
2015,1,13,3,45,0,13.156,-0.109,-5.6,NaN
2015,1,13,4,15,0,13.177,-0.676,-6.02,NaN
2015,1,13,4,45,0,13.198,-1.65,-5.88,NaN
2015,1,13,5,15,0,13.219,-1.37,-6.17,NaN
2015,1,13,5,45,0,13.24,-1.61,-5.74,NaN
2015,1,13,6,15,0,13.26,-0.969,-5.89,NaN
2015,1,13,6,45,0,13.281,-0.366,-5.8,NaN
2015,1,13,7,15,0,13.302,0.96,-5.88,NaN
2015,1,13,7,45,0,13.323,22.65,-5.52,NaN
2015,1,13,8,15,0,13.344,48.79,-5.31,NaN
2015,1,13,8,45,0,13.365,76.74,-5.21,NaN
2015,1,13,9,15,0,13.385,96.77,-5.13,NaN
2015,1,13,9,45,0,13.406,149.61,-5.28,NaN
2015,1,13,10,15,0,13.427,163.94,-5.08,NaN
2015,1,13,10,45,0,13.448,187.84,-4.99,NaN